EUTELSAT 21B

Last updated on Tue Sep 16 2025 00:02:47 GMT+0000 (Coordinated Universal Time)

1 38992U 12062B 25258.58882264 .00000113 00000+0 00000+0 0 9990 2 38992 0.0704 7.8647 0002769 172.7397 47.7727 1.00274139 47075
UTC large
Height (km)
Speed (km/s)
/
Latitude / Longitude
Inclination (degrees)
Orbital Period (minutes)
Azimuth
Elevation
Range (km)
Doppler Factor

Next 0 passes for location: London (51.5072 / 0.1276)

Sorry there are no passes over London.